Location: Asheville, NC
(35.6000°N, 82.5500°W)
Time: 00:13:14
(UTC-04:00)

Tiangong 1 - Pass Details

Date: 08 October 2017
Orbit: 292 x 319 km, 42.8° (Epoch: 22 October)

Event Time Altitude Azimuth Distance (km) Brightness Sun altitude
Rises 20:31:15 0° 289° (WNW) 2,030 6.2 -18.6°
Reaches altitude 10° 20:33:38 10° 311° (NW) 1,194 4.3 -19.1°
Enters shadow 20:35:21 17° 350° (N) 877 3.0 -19.4°
